TimeEDT,TemperatureF,Dew PointF,Humidity,Sea Level PressureIn,VisibilityMPH,Wind Direction,Wind SpeedMPH,Gust SpeedMPH,PrecipitationIn,Events,Conditions,WindDirDegrees,DateUTC
12:58 AM,44.8,27.7,51,30.24,10.0,Calm,Calm,-,N/A,,Clear,0,2013-03-11 04:58:00
1:58 AM,42.3,30.0,62,30.25,10.0,Calm,Calm,-,N/A,,Clear,0,2013-03-11 05:58:00
2:58 AM,41.4,30.7,66,30.22,10.0,Calm,Calm,-,N/A,,Clear,0,2013-03-11 06:58:00
3:58 AM,40.5,33.1,75,30.19,10.0,ESE,2.3,-,N/A,,Clear,110,2013-03-11 07:58:00
4:58 AM,41.9,34.5,75,30.18,10.0,Calm,Calm,-,N/A,,Scattered Clouds,20,2013-03-11 08:58:00
5:58 AM,43.3,37.8,81,30.18,10.0,Calm,Calm,-,N/A,,Partly Cloudy,0,2013-03-11 09:58:00
6:58 AM,42.4,39.2,88,30.17,10.0,Calm,Calm,-,N/A,,Partly Cloudy,0,2013-03-11 10:58:00
7:58 AM,42.8,40.3,91,30.17,10.0,Calm,Calm,-,N/A,,Clear,0,2013-03-11 11:58:00
8:58 AM,47.3,44.1,88,30.18,10.0,SSE,3.5,-,N/A,,Clear,150,2013-03-11 12:58:00
9:58 AM,52.7,47.5,82,30.16,10.0,SE,6.9,-,N/A,,Clear,140,2013-03-11 13:58:00
10:58 AM,58.3,48.2,69,30.14,10.0,SSE,5.8,-,N/A,,Clear,150,2013-03-11 14:58:00
11:58 AM,65.7,49.5,56,30.13,10.0,SSE,9.2,-,N/A,,Partly Cloudy,150,2013-03-11 15:58:00
12:58 PM,68.7,48.7,49,30.11,10.0,South,12.7,-,N/A,,Partly Cloudy,170,2013-03-11 16:58:00
1:58 PM,67.8,48.2,49,30.09,10.0,South,12.7,20.7,N/A,,Scattered Clouds,190,2013-03-11 17:58:00
2:58 PM,68.9,48.7,49,30.05,10.0,South,8.1,17.3,N/A,,Scattered Clouds,170,2013-03-11 18:58:00
3:58 PM,68.7,51.3,54,30.01,10.0,SE,10.4,-,N/A,,Partly Cloudy,140,2013-03-11 19:58:00
4:58 PM,68.2,52.2,56,29.99,10.0,SE,11.5,25.3,N/A,,Scattered Clouds,140,2013-03-11 20:58:00
5:58 PM,67.1,52.2,59,29.99,10.0,SSE,10.4,-,N/A,,Partly Cloudy,160,2013-03-11 21:58:00
6:58 PM,65.3,52.7,64,29.98,10.0,SSE,12.7,18.4,N/A,,Clear,150,2013-03-11 22:58:00
7:58 PM,64.0,53.2,68,29.97,10.0,SSE,10.4,18.4,N/A,,Scattered Clouds,160,2013-03-11 23:58:00
8:58 PM,62.8,53.8,72,29.98,10.0,SSE,9.2,-,N/A,,Scattered Clouds,160,2013-03-12 00:58:00
9:58 PM,62.1,53.4,73,29.97,10.0,SE,5.8,-,N/A,,Mostly Cloudy,140,2013-03-12 01:58:00
10:58 PM,61.7,53.4,74,29.97,10.0,SSE,6.9,-,N/A,,Mostly Cloudy,150,2013-03-12 02:58:00
11:52 PM,60.8,53.6,77,29.94,10.0,SE,6.9,-,N/A,Rain,Light Rain,130,2013-03-12 03:52:00
11:58 PM,61.2,54.5,79,29.96,10.0,SE,5.8,-,0.00,Rain,Light Rain,130,2013-03-12 03:58:00